RH
48 50 53 52 55 58 62 67 73 69 63 65 71 67 72 67 69 76 77 81 83 80 69 70 73 68 66 67 79 87 97 92
46 50 52 52 56 56 58 62 70 69 65 63 59 66 72 68 69 72 74 79 84 84 87 84 87 81 82 80 74 70 67 71
45 48 51 53 56 57 56 58 63 66 64 66 65 65 63 67 67 68 72 77 88 88 97 96 97 95 95 97 96 89 72 63
45 49 55 58 61 63 61 63 63 70 72 62 63 58 53 58 58 68 73 79 85 94 95 94 96 95 96 97 99 100 97 82
46 53 60 62 64 67 69 69 68 71 76 70 71 65 62 64 61 65 68 76 80 89 92 93 96 96 97 99 97 100 100 98
54 61 63 62 64 64 67 67 67 76 78 81 76 74 73 71 73 73 68 72 78 84 90 91 94 96 98 100 99 100 100 100
58 62 62 63 65 67 66 64 63 71 75 78 83 84 85 82 86 85 85 79 80 87 91 94 95 96 98 99 100 100 100 99
58 56 58 60 59 64 64 64 64 72 77 79 80 81 80 78 84 87 92 92 94 97 97 97 98 98 98 99 100 100 99 99
60 58 57 56 55 68 70 64 66 74 78 81 83 86 85 82 86 89 91 95 95 98 100 100 99 100 98 99 98 99 98 96
64 61 58 56 59 73 78 75 72 79 82 82 84 84 86 85 86 90 91 93 91 96 97 100 97 97 98 99 99 99 99 99
60 52 53 56 67 72 80 81 81 82 84 85 85 86 87 86 86 90 91 92 93 93 96 95 94 96 97 98 96 97 99 98
57 52 50 56 62 68 78 81 82 82 83 85 85 85 84 86 88 91 93 94 94 94 95 93 92 94 96 96 94 96 96 98
48 44 47 53 60 67 73 80 80 81 82 82 82 81 80 81 85 89 92 97 96 94 94 90 90 91 94 95 95 97 98 98
46 44 47 52 62 68 72 76 74 71 71 70 69 69 66 66 68 72 74 74 75 79 79 76 78 87 92 90 89 91 93 97
46 43 48 54 62 65 68 73 71 68 68 68 68 64 63 66 67 67 69 67 66 66 67 67 65 76 94 96 86 86 87 90
47 46 49 58 63 64 67 67 69 66 68 70 67 62 65 68 70 69 70 70 68 68 67 66 62 67 89 95 84 81 83 84
48 46 52 57 62 62 66 62 59 59 59 60 64 66 66 71 71 72 70 70 72 72 71 70 69 64 90 93 83 83 86 82
48 50 58 59 63 65 66 62 55 55 55 60 67 75 77 79 76 78 79 79 79 83 82 77 76 76 85 96 85 84 82 85
62 66 65 69 72 69 64 59 58 57 60 66 69 74 77 78 83 88 90 90 89 88 86 86 81 84 83 91 84 85 89 88
Wind_Speed
8 10 11 12 14 15 16 18 19 16 13 9 8 9 11 13 14 15 14 13 14 12 10 10 13 13 13 15 16 16 20 26
6 8 10 11 13 14 16 18 19 18 16 14 11 11 11 11 10 11 12 13 14 13 11 12 13 12 14 16 18 20 20 19
6 8 10 12 13 15 15 17 18 18 16 15 11 10 8 9 11 10 12 13 12 11 13 12 13 13 13 13 15 18 19 18
5 7 10 11 13 13 13 14 15 16 17 14 14 10 6 11 11 13 13 13 13 12 13 13 13 12 12 14 14 14 17 19
5 9 9 10 10 10 11 12 14 15 16 15 15 13 13 13 12 14 13 12 13 14 13 13 14 13 12 12 13 15 14 16
5 6 7 9 11 12 12 11 12 13 14 15 14 14 13 13 12 14 13 12 11 12 15 13 13 14 15 14 15 16 14 15
3 3 5 8 10 11 12 14 13 15 15 13 13 13 12 12 14 12 14 14 14 15 15 14 13 15 16 16 15 15 16 18
2 2 3 5 8 10 11 11 12 13 13 13 13 13 12 11 12 13 13 13 14 16 16 15 15 15 16 16 15 16 16 18
4 2 3 5 6 9 10 11 11 12 12 12 12 13 12 11 11 12 12 13 15 17 17 16 16 14 16 16 15 14 16 18
6 3 2 3 6 7 8 10 10 11 11 11 11 12 12 12 13 11 10 13 15 16 16 17 19 17 16 16 13 15 15 15
7 3 2 3 4 5 7 8 9 9 9 10 11 12 12 13 13 14 15 15 16 17 19 19 18 18 18 16 16 16 15 18
7 6 4 4 3 4 5 6 6 7 8 9 10 11 12 13 15 15 15 16 17 18 19 21 21 20 17 16 15 15 17 18
9 7 5 3 4 4 4 4 5 6 6 8 9 10 11 12 12 13 14 15 16 17 17 18 19 20 18 17 16 16 18 20
11 9 7 5 4 4 3 3 3 4 5 7 8 10 11 12 12 12 13 14 15 15 16 18 20 21 19 17 18 18 18 20
12 10 9 6 5 4 3 3 4 4 5 7 9 10 11 12 12 13 14 15 15 15 17 19 20 22 22 20 18 18 19 20
14 11 10 9 7 6 4 3 5 4 6 7 9 9 11 12 12 13 13 14 15 15 16 19 20 25 25 23 17 19 19 21
14 12 13 11 9 8 6 5 6 6 6 7 8 10 11 12 12 12 13 14 15 16 17 18 23 24 27 21 18 18 19 22
15 13 14 13 11 9 8 7 7 7 7 8 9 10 11 12 12 12 14 14 14 16 17 18 21 28 30 24 18 17 19 21
14 16 16 15 13 10 9 8 8 8 9 10 10 10 10 10 12 13 13 13 14 15 17 18 19 28 31 27 18 17 18 20
Wind_Direction
39 27 22 21 18 15 13 12 11 11 12 8 16 38 26 25 22 17 12 6 360 354 336 330 328 317 310 311 312 299 290 290
47 39 34 26 25 19 17 14 14 17 15 9 359 357 9 17 12 9 6 5 1 1 352 345 344 337 325 321 311 300 292 287
59 38 37 36 29 24 22 20 16 14 9 10 3 352 359 10 9 10 6 4 5 6 0 348 344 335 334 336 331 315 299 294
49 48 33 23 19 14 19 17 14 14 9 4 2 11 7 8 3 6 7 360 0 4 1 350 343 340 334 332 327 326 315 303
54 30 23 13 11 8 8 12 13 13 12 9 10 359 353 354 352 352 354 1 359 359 358 355 347 337 332 335 322 316 311 308
51 37 16 15 15 14 12 6 12 11 13 16 11 4 355 345 348 341 342 346 356 0 352 354 352 339 334 331 323 315 309 302
74 52 27 26 16 10 7 8 16 14 14 14 14 3 358 357 356 355 342 339 342 347 353 351 356 344 335 324 321 313 310 304
138 87 45 23 13 10 5 5 9 10 11 12 11 9 0 2 2 359 354 349 347 344 351 351 356 348 331 330 323 321 314 307
151 93 24 27 20 19 6 6 10 11 13 15 14 14 9 0 10 8 4 359 352 348 352 356 0 348 339 336 337 326 325 320
171 173 86 38 32 26 10 7 10 11 12 18 22 21 20 13 15 15 9 20 4 358 358 359 6 356 348 351 348 348 342 335
193 173 119 66 57 36 20 16 12 10 19 27 28 30 29 26 24 20 20 27 15 8 10 10 4 4 5 6 4 1 1 0
191 182 155 110 86 61 37 25 19 19 27 30 33 35 34 33 29 26 22 24 24 17 13 12 10 12 13 16 14 13 17 13
190 170 158 126 98 67 52 42 31 33 38 42 40 39 36 37 33 30 25 24 25 19 14 16 17 17 14 20 21 23 24 23
184 174 162 143 115 109 91 71 48 46 46 51 46 39 37 36 35 33 31 28 32 24 20 22 21 19 15 17 24 28 28 26
189 169 155 139 137 131 133 111 84 56 47 49 49 41 38 35 34 32 32 29 27 26 24 22 22 21 18 12 21 26 26 24
191 170 152 155 152 148 144 133 95 82 72 59 52 46 44 41 39 35 36 33 29 29 31 26 24 23 17 14 19 25 25 24
181 165 157 159 158 152 152 124 102 88 76 65 57 53 49 44 43 42 42 36 32 29 32 29 27 22 15 20 25 27 27 27
174 158 161 159 156 156 145 129 115 96 85 73 65 58 53 47 46 47 47 42 38 34 33 30 28 22 16 15 23 29 30 28
160 162 155 158 155 145 145 133 118 105 86 75 66 60 56 52 51 51 49 46 45 40 37 33 29 24 19 18 22 31 32 31